| time (UTC) | temp F | wind direction | speed MPH | gust MPH | rain 1hr in | rain 24hr in | rain mn in | humidity % | barometer mb |
| 20260510151003 | 66 | 14 | 2.0 | 8.0 | 0.00 | 0.26 | 0.00 | 75 | 1011.0 |
| 20260510150003 | 65 | 357 | 2.0 | 8.0 | 0.00 | 0.26 | 0.00 | 75 | 1011.1 |
| 20260510145003 | 65 | 339 | 2.0 | 6.0 | 0.00 | 0.27 | 0.00 | 75 | 1011.0 |
| 20260510144214 | 65 | 22 | 1.0 | 4.0 | 0.00 | 0.27 | 0.00 | 77 | 1011.0 |
| 20260510143003 | 64 | 358 | 2.0 | 6.0 | 0.00 | 0.27 | 0.00 | 76 | 1010.9 |
| 20260510142003 | 63 | 50 | 2.0 | 5.0 | 0.00 | 0.27 | 0.00 | 81 | 1010.7 |
| 20260510141003 | 62 | 358 | 1.0 | 8.0 | 0.00 | 0.28 | 0.00 | 81 | 1010.8 |
| 20260510140003 | 61 | 20 | 1.0 | 6.0 | 0.00 | 0.28 | 0.00 | 83 | 1010.9 |
| 20260510135003 | 61 | 9 | 1.0 | 5.0 | 0.00 | 0.28 | 0.00 | 84 | 1010.9 |
| 20260510134003 | 61 | 346 | 1.0 | 6.0 | 0.00 | 0.28 | 0.00 | 86 | 1010.8 |
| 20260510133003 | 60 | 30 | 1.0 | 7.0 | 0.00 | 0.29 | 0.00 | 87 | 1010.5 |
| 20260510132003 | 60 | 324 | 1.0 | 5.0 | 0.00 | 0.29 | 0.00 | 90 | 1010.7 |
| 20260510131003 | 59 | 75 | 1.0 | 4.0 | 0.00 | 0.29 | 0.00 | 92 | 1010.5 |
| 20260510130003 | 58 | 12 | 2.0 | 8.0 | 0.00 | 0.30 | 0.00 | 92 | 1010.4 |
| 20260510125003 | 56 | 22 | 1.0 | 5.0 | 0.00 | 0.30 | 0.00 | 95 | 1010.4 |
| 20260510124003 | 56 | 1 | 2.0 | 12.0 | 0.00 | 0.30 | 0.00 | 97 | 1010.4 |
| 20260510123213 | 55 | 41 | 1.0 | 5.0 | 0.00 | 0.30 | 0.00 | 98 | 1010.5 |
| 20260510122213 | 54 | 88 | 1.0 | 4.0 | 0.00 | 0.30 | 0.00 | 98 | 1010.4 |
| 20260510121003 | 53 | 0 | 0.0 | 0.0 | 0.00 | 0.30 | 0.00 | 98 | 1010.3 |
| 20260510120003 | 53 | 0 | 0.0 | 0.0 | 0.00 | 0.30 | 0.00 | 98 | 1010.0 |
| 20260510115003 | 52 | 121 | 0.0 | 1.0 | 0.00 | 0.30 | 0.00 | 98 | 1010.0 |
| 20260510114003 | 51 | 0 | 0.0 | 0.0 | 0.00 | 0.30 | 0.00 | 98 | 1009.9 |
| 20260510113003 | 50 | 0 | 0.0 | 0.0 | 0.00 | 0.31 | 0.00 | 97 | 1009.8 |
| 20260510112213 | 50 | 0 | 0.0 | 0.0 | 0.00 | 0.31 | 0.00 | 97 | 1009.6 |
| 20260510111003 | 49 | 0 | 0.0 | 0.0 | 0.00 | 0.31 | 0.00 | 97 | 1009.6 |
| 20260510110003 | 49 | 0 | 0.0 | 0.0 | 0.00 | 0.31 | 0.00 | 97 | 1009.3 |
| 20260510105003 | 49 | 0 | 0.0 | 0.0 | 0.00 | 0.31 | 0.00 | 97 | 1009.0 |
| 20260510104003 | 49 | 0 | 0.0 | 0.0 | 0.00 | 0.32 | 0.00 | 96 | 1009.1 |
| 20260510103003 | 49 | 0 | 0.0 | 0.0 | 0.00 | 0.32 | 0.00 | 96 | 1009.1 |
| 20260510102003 | 50 | 0 | 0.0 | 0.0 | 0.00 | 0.32 | 0.00 | 96 | 1008.8 |
| 20260510101003 | 50 | 0 | 0.0 | 0.0 | 0.00 | 0.32 | 0.00 | 97 | 1008.7 |
| 20260510100004 | 50 | 0 | 0.0 | 0.0 | 0.00 | 0.32 | 0.00 | 97 | 1008.6 |
| 20260510095003 | 50 | 0 | 0.0 | 0.0 | 0.00 | 0.32 | 0.00 | 97 | 1008.6 |
| 20260510094003 | 50 | 0 | 0.0 | 0.0 | 0.00 | 0.32 | 0.00 | 97 | 1008.6 |
| 20260510093214 | 50 | 0 | 0.0 | 0.0 | 0.00 | 0.32 | 0.00 | 97 | 1008.6 |
| 20260510092214 | 50 | 0 | 0.0 | 0.0 | 0.00 | 0.32 | 0.00 | 97 | 1008.5 |
| 20260510091003 | 51 | 0 | 0.0 | 0.0 | 0.00 | 0.32 | 0.00 | 97 | 1008.5 |
| 20260510090003 | 50 | 0 | 0.0 | 0.0 | 0.00 | 0.32 | 0.00 | 97 | 1008.2 |
| 20260510085003 | 50 | 0 | 0.0 | 0.0 | 0.00 | 0.32 | 0.00 | 97 | 1008.4 |
| 20260510084003 | 49 | 0 | 0.0 | 0.0 | 0.00 | 0.32 | 0.00 | 97 | 1008.3 |
| 20260510083214 | 48 | 0 | 0.0 | 0.0 | 0.00 | 0.32 | 0.00 | 97 | 1008.1 |
| 20260510082003 | 48 | 0 | 0.0 | 0.0 | 0.00 | 0.32 | 0.00 | 96 | 1007.9 |
| 20260510081214 | 49 | 0 | 0.0 | 0.0 | 0.00 | 0.32 | 0.00 | 96 | 1007.7 |
| 20260510080003 | 49 | 0 | 0.0 | 0.0 | 0.00 | 0.32 | 0.00 | 96 | 1007.4 |
| 20260510075003 | 49 | 0 | 0.0 | 0.0 | 0.00 | 0.32 | 0.00 | 97 | 1007.4 |
| 20260510074003 | 49 | 0 | 0.0 | 0.0 | 0.00 | 0.32 | 0.00 | 96 | 1007.4 |
| 20260510073213 | 49 | 0 | 0.0 | 0.0 | 0.00 | 0.32 | 0.00 | 97 | 1007.3 |
| 20260510072003 | 49 | 0 | 0.0 | 0.0 | 0.00 | 0.32 | 0.00 | 97 | 1007.6 |
| 20260510071003 | 49 | 0 | 0.0 | 0.0 | 0.00 | 0.32 | 0.00 | 96 | 1008.0 |
| 20260510070213 | 49 | 0 | 0.0 | 0.0 | 0.00 | 0.32 | 0.00 | 96 | 1008.2 |
| 20260510065003 | 49 | 0 | 0.0 | 0.0 | 0.00 | 0.32 | 0.00 | 96 | 1008.2 |
| 20260510064003 | 49 | 0 | 0.0 | 0.0 | 0.00 | 0.32 | 0.00 | 96 | 1008.3 |
| 20260510063003 | 50 | 121 | 0.0 | 1.0 | 0.00 | 0.32 | 0.00 | 96 | 1008.5 |
| 20260510062003 | 50 | 0 | 0.0 | 0.0 | 0.00 | 0.32 | 0.00 | 97 | 1008.7 |
| 20260510061003 | 50 | 121 | 0.0 | 1.0 | 0.00 | 0.32 | 0.00 | 97 | 1009.0 |
| 20260510060213 | 49 | 121 | 0.0 | 3.0 | 0.00 | 0.32 | 0.00 | 96 | 1009.2 |
| 20260510055213 | 50 | 121 | 0.0 | 3.0 | 0.00 | 0.33 | 0.00 | 98 | 1009.2 |
| 20260510054003 | 48 | 0 | 0.0 | 0.0 | 0.00 | 0.33 | 0.00 | 97 | 1009.4 |
| 20260510053003 | 47 | 0 | 0.0 | 0.0 | 0.00 | 0.34 | 0.00 | 97 | 1009.3 |
| 20260510052003 | 46 | 0 | 0.0 | 0.0 | 0.00 | 0.34 | 0.00 | 96 | 1009.1 |
| 20260510051003 | 46 | 0 | 0.0 | 0.0 | 0.00 | 0.34 | 0.00 | 96 | 1008.6 |
| 20260510050004 | 45 | 0 | 0.0 | 0.0 | 0.00 | 0.34 | 0.00 | 96 | 1008.6 |
| 20260510045003 | 45 | 0 | 0.0 | 0.0 | 0.00 | 0.34 | 0.00 | 96 | 1008.6 |
| 20260510044003 | 45 | 0 | 0.0 | 0.0 | 0.00 | 0.34 | 0.00 | 95 | 1008.6 |
| 20260510043003 | 45 | 0 | 0.0 | 0.0 | 0.00 | 0.34 | 0.00 | 95 | 1008.5 |
| 20260510042003 | 45 | 0 | 0.0 | 0.0 | 0.00 | 0.34 | 0.00 | 95 | 1008.4 |
| 20260510041003 | 45 | 0 | 0.0 | 0.0 | 0.00 | 0.34 | 0.00 | 95 | 1008.1 |
| 20260510040004 | 46 | 0 | 0.0 | 0.0 | 0.00 | 0.34 | 0.00 | 95 | 1007.8 |
| 20260510035003 | 46 | 0 | 0.0 | 0.0 | 0.00 | 0.34 | 0.34 | 95 | 1007.6 |
| 20260510034003 | 46 | 0 | 0.0 | 0.0 | 0.00 | 0.34 | 0.34 | 95 | 1007.6 |
| 20260510033003 | 46 | 0 | 0.0 | 0.0 | 0.00 | 0.34 | 0.34 | 95 | 1007.5 |
| 20260510032003 | 46 | 0 | 0.0 | 0.0 | 0.00 | 0.34 | 0.34 | 95 | 1007.5 |
| 20260510031214 | 46 | 0 | 0.0 | 0.0 | 0.00 | 0.34 | 0.34 | 95 | 1007.6 |
| 20260510030003 | 47 | 0 | 0.0 | 0.0 | 0.00 | 0.34 | 0.34 | 94 | 1007.6 |
| 20260510025003 | 47 | 0 | 0.0 | 0.0 | 0.00 | 0.34 | 0.34 | 95 | 1007.7 |
| 20260510024003 | 47 | 0 | 0.0 | 0.0 | 0.00 | 0.34 | 0.34 | 94 | 1007.7 |
| 20260510023003 | 48 | 0 | 0.0 | 0.0 | 0.00 | 0.34 | 0.34 | 94 | 1007.5 |
| 20260510022003 | 48 | 0 | 0.0 | 0.0 | 0.00 | 0.34 | 0.34 | 94 | 1007.6 |
| 20260510021213 | 48 | 0 | 0.0 | 0.0 | 0.00 | 0.34 | 0.34 | 94 | 1007.6 |
| 20260510020003 | 49 | 0 | 0.0 | 0.0 | 0.00 | 0.34 | 0.34 | 94 | 1007.6 |
| 20260510015003 | 49 | 0 | 0.0 | 0.0 | 0.00 | 0.34 | 0.34 | 94 | 1007.5 |
| 20260510014003 | 50 | 0 | 0.0 | 0.0 | 0.00 | 0.34 | 0.34 | 94 | 1007.5 |
| 20260510013003 | 50 | 0 | 0.0 | 0.0 | 0.00 | 0.34 | 0.34 | 93 | 1007.5 |
| 20260510012003 | 50 | 0 | 0.0 | 0.0 | 0.00 | 0.34 | 0.34 | 93 | 1007.3 |
| 20260510011003 | 51 | 0 | 0.0 | 0.0 | 0.00 | 0.34 | 0.34 | 93 | 1007.0 |
| 20260510010003 | 52 | 0 | 0.0 | 0.0 | 0.00 | 0.34 | 0.34 | 93 | 1007.0 |
| 20260510005213 | 52 | 0 | 0.0 | 0.0 | 0.00 | 0.34 | 0.34 | 93 | 1007.0 |
| 20260510004003 | 53 | 0 | 0.0 | 0.0 | 0.00 | 0.34 | 0.34 | 93 | 1007.0 |
| 20260510003004 | 54 | 0 | 0.0 | 0.0 | 0.00 | 0.34 | 0.34 | 92 | 1006.8 |
| 20260510002003 | 54 | 0 | 0.0 | 0.0 | 0.00 | 0.34 | 0.34 | 92 | 1006.8 |
| 20260510001003 | 55 | 0 | 0.0 | 0.0 | 0.00 | 0.34 | 0.34 | 91 | 1006.8 |
| 20260510000003 | 56 | 0 | 0.0 | 0.0 | 0.00 | 0.34 | 0.34 | 92 | 1006.6 |
| 20260509235003 | 57 | 0 | 0.0 | 0.0 | 0.00 | 0.34 | 0.34 | 91 | 1006.7 |
| 20260509234003 | 58 | 0 | 0.0 | 0.0 | 0.00 | 0.34 | 0.34 | 90 | 1006.6 |
| 20260509233003 | 58 | 0 | 0.0 | 0.0 | 0.00 | 0.34 | 0.34 | 89 | 1006.4 |
| 20260509232003 | 59 | 0 | 0.0 | 0.0 | 0.00 | 0.35 | 0.34 | 89 | 1006.3 |
| 20260509231003 | 59 | 0 | 0.0 | 0.0 | 0.01 | 0.35 | 0.34 | 88 | 1006.2 |
| 20260509230003 | 60 | 0 | 0.0 | 0.0 | 0.01 | 0.36 | 0.34 | 87 | 1006.4 |
| 20260509225003 | 60 | 319 | 0.0 | 3.0 | 0.01 | 0.36 | 0.34 | 87 | 1006.3 |
| 20260509224004 | 60 | 104 | 0.0 | 1.0 | 0.01 | 0.36 | 0.34 | 89 | 1006.3 |
| 20260509223003 | 60 | 104 | 1.0 | 2.0 | 0.01 | 0.36 | 0.34 | 89 | 1006.2 |
| 20260509222003 | 60 | 66 | 1.0 | 4.0 | 0.01 | 0.36 | 0.34 | 90 | 1006.5 |
| 20260509221003 | 60 | 322 | 0.0 | 1.0 | 0.00 | 0.35 | 0.33 | 90 | 1006.5 |
| 20260509220003 | 60 | 0 | 0.0 | 0.0 | 0.00 | 0.35 | 0.33 | 92 | 1006.6 |
| 20260509215003 | 59 | 0 | 0.0 | 0.0 | 0.00 | 0.35 | 0.33 | 94 | 1006.6 |
| 20260509214003 | 58 | 0 | 0.0 | 0.0 | 0.00 | 0.35 | 0.33 | 94 | 1006.7 |
| 20260509213003 | 57 | 0 | 0.0 | 0.0 | 0.00 | 0.35 | 0.33 | 95 | 1006.8 |
| 20260509212003 | 56 | 0 | 0.0 | 0.0 | 0.00 | 0.35 | 0.33 | 95 | 1006.9 |
| 20260509211003 | 56 | 0 | 0.0 | 0.0 | 0.00 | 0.35 | 0.33 | 95 | 1007.0 |
| 20260509210003 | 56 | 0 | 0.0 | 0.0 | 0.00 | 0.35 | 0.33 | 95 | 1007.0 |
| 20260509205003 | 55 | 0 | 0.0 | 0.0 | 0.00 | 0.35 | 0.33 | 95 | 1007.3 |
| 20260509204213 | 55 | 0 | 0.0 | 0.0 | 0.01 | 0.35 | 0.33 | 94 | 1007.3 |
| 20260509203003 | 56 | 342 | 0.0 | 4.0 | 0.01 | 0.35 | 0.33 | 95 | 1007.5 |
| 20260509202003 | 56 | 61 | 1.0 | 3.0 | 0.02 | 0.35 | 0.33 | 95 | 1007.5 |
| 20260509201003 | 56 | 44 | 0.0 | 4.0 | 0.03 | 0.35 | 0.33 | 95 | 1007.5 |
| 20260509200003 | 55 | 0 | 0.0 | 0.0 | 0.03 | 0.35 | 0.33 | 95 | 1007.4 |
| 20260509195003 | 55 | 46 | 0.0 | 4.0 | 0.05 | 0.35 | 0.33 | 95 | 1007.3 |
| 20260509194003 | 55 | 19 | 0.0 | 3.0 | 0.04 | 0.34 | 0.32 | 96 | 1007.4 |
| 20260509193003 | 54 | 5 | 0.0 | 1.0 | 0.06 | 0.34 | 0.32 | 95 | 1007.6 |
| 20260509192003 | 54 | 0 | 0.0 | 0.0 | 0.06 | 0.33 | 0.31 | 96 | 1007.6 |
| 20260509191003 | 54 | 0 | 0.0 | 0.0 | 0.06 | 0.32 | 0.30 | 95 | 1007.9 |
| 20260509190003 | 54 | 0 | 0.0 | 0.0 | 0.07 | 0.33 | 0.30 | 95 | 1008.2 |
| 20260509185213 | 54 | 0 | 0.0 | 0.0 | 0.06 | 0.31 | 0.29 | 95 | 1008.3 |
| 20260509184003 | 54 | 355 | 0.0 | 2.0 | 0.06 | 0.31 | 0.28 | 95 | 1008.3 |
| 20260509183003 | 54 | 3 | 1.0 | 5.0 | 0.06 | 0.29 | 0.26 | 95 | 1008.4 |
| 20260509182003 | 54 | 18 | 0.0 | 2.0 | 0.07 | 0.28 | 0.25 | 95 | 1008.3 |
| 20260509181003 | 54 | 0 | 0.0 | 0.0 | 0.08 | 0.27 | 0.24 | 95 | 1008.2 |
| 20260509180212 | 54 | 11 | 0.0 | 2.0 | 0.08 | 0.26 | 0.23 | 95 | 1008.3 |
| 20260509175003 | 55 | 0 | 0.0 | 0.0 | 0.09 | 0.25 | 0.22 | 96 | 1008.3 |
| 20260509174212 | 54 | 40 | 0.0 | 1.0 | 0.09 | 0.25 | 0.22 | 96 | 1008.2 |
| 20260509173003 | 54 | 40 | 0.0 | 2.0 | 0.08 | 0.23 | 0.20 | 95 | 1008.1 |
| 20260509172214 | 54 | 40 | 0.0 | 3.0 | 0.07 | 0.21 | 0.18 | 95 | 1008.3 |
| 20260509171003 | 54 | 42 | 0.0 | 2.0 | 0.06 | 0.19 | 0.16 | 95 | 1008.2 |
| 20260509170003 | 54 | 45 | 0.0 | 2.0 | 0.04 | 0.17 | 0.14 | 94 | 1008.3 |
| 20260509165003 | 54 | 45 | 0.0 | 3.0 | 0.04 | 0.16 | 0.13 | 95 | 1008.3 |
| 20260509164003 | 55 | 0 | 0.0 | 0.0 | 0.03 | 0.15 | 0.12 | 95 | 1008.3 |
| 20260509163214 | 55 | 0 | 0.0 | 0.0 | 0.03 | 0.15 | 0.12 | 95 | 1008.3 |
| 20260509162214 | 55 | 5 | 0.0 | 3.0 | 0.03 | 0.14 | 0.11 | 95 | 1008.4 |
| 20260509161003 | 54 | 5 | 1.0 | 3.0 | 0.02 | 0.13 | 0.10 | 95 | 1008.4 |
| 20260509160003 | 54 | 7 | 1.0 | 4.0 | 0.02 | 0.13 | 0.10 | 95 | 1008.5 |
| 20260509155003 | 54 | 14 | 0.0 | 3.0 | 0.02 | 0.12 | 0.09 | 94 | 1008.4 |
| 20260509154003 | 54 | 30 | 0.0 | 4.0 | 0.02 | 0.12 | 0.09 | 95 | 1008.4 |
| 20260509153213 | 54 | 0 | 0.0 | 0.0 | 0.02 | 0.12 | 0.09 | 95 | 1008.5 |
| 20260509152003 | 54 | 0 | 0.0 | 0.0 | 0.01 | 0.11 | 0.08 | 96 | 1008.6 |